Estación de La Piedad
Ultimos registro cada 15 minutos 54
| N° | Estación | Fecha / Hora | Temperatura | Humedad | Lluvia | Velocidad | Dirección | Radiación | Presion |
| 54 | La Piedad | 04-05-2026 13:15 | 14,6 | 95 | 0 | 0 | 189 | 185 | 1017,5 |
| 53 | La Piedad | 04-05-2026 13:00 | 14,4 | 95 | 0 | 0,4 | 189 | 218 | 1017,8 |
| 52 | La Piedad | 04-05-2026 12:45 | 14,4 | 94 | 0 | 0,4 | 175 | 192 | 1018,1 |
| 51 | La Piedad | 04-05-2026 12:30 | 14,8 | 94 | 0 | 0 | 223 | 171 | 1018,2 |
| 50 | La Piedad | 04-05-2026 12:15 | 14,9 | 95 | 0 | 0 | 71 | 179 | 1018,2 |
| 49 | La Piedad | 04-05-2026 12:00 | 14,5 | 93 | 0 | 0 | 64 | 207 | 1018,4 |
| 48 | La Piedad | 04-05-2026 11:45 | 14,1 | 94 | 0 | 0 | 64 | 211 | 1018,1 |
| 47 | La Piedad | 04-05-2026 11:30 | 13,6 | 95 | 0 | 0 | 64 | 121 | 1018,5 |
| 46 | La Piedad | 04-05-2026 11:15 | 13,4 | 95 | 0 | 0 | 64 | 107 | 1018,5 |
| 45 | La Piedad | 04-05-2026 11:00 | 13,3 | 95 | 0 | 1,8 | 64 | 111 | 1018,4 |
| 44 | La Piedad | 04-05-2026 10:45 | 13,3 | 96 | 0 | 1,8 | 76 | 128 | 1018,3 |
| 43 | La Piedad | 04-05-2026 10:30 | 12,9 | 96 | 0,2 | 0 | 78 | 86 | 1018,6 |
| 42 | La Piedad | 04-05-2026 10:15 | 13 | 96 | 0 | 0 | 78 | 72 | 1018,5 |
| 41 | La Piedad | 04-05-2026 10:00 | 13 | 96 | 0 | 0,9 | 78 | 42 | 1018,5 |
| 40 | La Piedad | 04-05-2026 09:45 | 13 | 97 | 0 | 0 | 78 | 32 | 1018,3 |
| 39 | La Piedad | 04-05-2026 09:30 | 12,9 | 97 | 0 | 0 | 78 | 28 | 1018,2 |
| 38 | La Piedad | 04-05-2026 09:15 | 12,8 | 97 | 0 | 0 | 78 | 26 | 1017,9 |
| 37 | La Piedad | 04-05-2026 09:00 | 12,7 | 97 | 0 | 0 | 78 | 40 | 1017,9 |
| 36 | La Piedad | 04-05-2026 08:45 | 12,6 | 98 | 0 | 0 | 78 | 62 | 1017,8 |
| 35 | La Piedad | 04-05-2026 08:30 | 12,3 | 97 | 0 | 0 | 78 | 32 | 1018 |
| 34 | La Piedad | 04-05-2026 08:15 | 12,2 | 97 | 0 | 0 | 78 | 28 | 1017,6 |
| 33 | La Piedad | 04-05-2026 08:00 | 12,1 | 97 | 0 | 0 | 78 | 9 | 1017,4 |
| 32 | La Piedad | 04-05-2026 07:45 | 12,1 | 97 | 0 | 0 | 78 | 5 | 1017,2 |
| 31 | La Piedad | 04-05-2026 07:30 | 12,1 | 97 | 0 | 0 | 78 | 0 | 1017,2 |
| 30 | La Piedad | 04-05-2026 07:15 | 12,1 | 97 | 0 | 0 | 78 | 0 | 1017,3 |
| 29 | La Piedad | 04-05-2026 07:00 | 12,1 | 97 | 0 | 0 | 78 | 0 | 1017,2 |
| 28 | La Piedad | 04-05-2026 06:45 | 11,9 | 97 | 0 | 0 | 78 | 0 | 1017,2 |
| 27 | La Piedad | 04-05-2026 06:30 | 11,9 | 97 | 0 | 0 | 78 | 0 | 1017,1 |
| 26 | La Piedad | 04-05-2026 06:15 | 11,8 | 97 | 0 | 0 | 78 | 0 | 1017,1 |
| 25 | La Piedad | 04-05-2026 06:00 | 11,8 | 97 | 0 | 0 | 78 | 0 | 1017,1 |
| 24 | La Piedad | 04-05-2026 05:45 | 11,8 | 97 | 0 | 0 | 78 | 0 | 1016,7 |
| 23 | La Piedad | 04-05-2026 05:30 | 11,8 | 97 | 0 | 0 | 78 | 0 | 1016,7 |
| 22 | La Piedad | 04-05-2026 05:15 | 11,8 | 97 | 0 | 0 | 78 | 0 | 1016,8 |
| 21 | La Piedad | 04-05-2026 05:00 | 11,8 | 97 | 0 | 0 | 78 | 0 | 1016,7 |
| 20 | La Piedad | 04-05-2026 04:45 | 11,8 | 97 | 0 | 0 | 78 | 0 | 1016,8 |
| 19 | La Piedad | 04-05-2026 04:30 | 11,8 | 97 | 0 | 0 | 78 | 0 | 1016,7 |
| 18 | La Piedad | 04-05-2026 04:15 | 11,8 | 97 | 0 | 0 | 78 | 0 | 1016,6 |
| 17 | La Piedad | 04-05-2026 04:00 | 11,7 | 97 | 0 | 0 | 78 | 0 | 1016,7 |
| 16 | La Piedad | 04-05-2026 03:45 | 11,6 | 97 | 0 | 0 | 78 | 0 | 1017,2 |
| 15 | La Piedad | 04-05-2026 03:30 | 11,5 | 96 | 0 | 0 | 78 | 0 | 1017,1 |
| 14 | La Piedad | 04-05-2026 03:15 | 11,6 | 96 | 0 | 0 | 78 | 0 | 1017 |
| 13 | La Piedad | 04-05-2026 03:00 | 11,7 | 97 | 0 | 0 | 78 | 0 | 1017 |
| 12 | La Piedad | 04-05-2026 02:45 | 11,8 | 97 | 0 | 0 | 78 | 0 | 1017,2 |
| 11 | La Piedad | 04-05-2026 02:30 | 11,8 | 96 | 0 | 0 | 78 | 0 | 1017,3 |
| 10 | La Piedad | 04-05-2026 02:15 | 12 | 96 | 0 | 0 | 78 | 0 | 1017,5 |
| 9 | La Piedad | 04-05-2026 02:00 | 12,1 | 97 | 0 | 0 | 78 | 0 | 1017,8 |
| 8 | La Piedad | 04-05-2026 01:45 | 12,1 | 97 | 0 | 0 | 78 | 0 | 1018,3 |
| 7 | La Piedad | 04-05-2026 01:30 | 12,1 | 96 | 0 | 0 | 78 | 0 | 1018,2 |
| 6 | La Piedad | 04-05-2026 01:15 | 12,1 | 96 | 0 | 0 | 77 | 0 | 1018,4 |
| 5 | La Piedad | 04-05-2026 01:00 | 12,1 | 96 | 0 | 0 | 77 | 0 | 1018,5 |
| 4 | La Piedad | 04-05-2026 00:45 | 12,2 | 96 | 0 | 0 | 77 | 0 | 1018,5 |
| 3 | La Piedad | 04-05-2026 00:30 | 12,2 | 96 | 0 | 0 | 77 | 0 | 1018,3 |
| 2 | La Piedad | 04-05-2026 00:15 | 12,2 | 96 | 0 | 0 | 77 | 0 | 1018,3 |
| 1 | La Piedad | 04-05-2026 00:00 | 12,2 | 96 | 0 | 0 | 77 | 0 | 1018,6 |